Location: Carrer del Canonge
(41.4901°N, 2.2931°E)
Time: 04:02:16
(UTC+00:00)

CZ-2C R/B - Pass Details

Date: 18 September 2020
Orbit: 785 x 870 km, 98.2° (Epoch: 25 October)

Event Time Altitude Azimuth Distance (km) Brightness Sun altitude
Rises 19:18:22 0° 16° (NNE) 3,417 5.9 -16.3°
Reaches altitude 10° 19:20:46 10° 20° (NNE) 2,488 5.1 -16.7°
Maximum altitude 19:26:16 63° 101° (E) 960 2.7 -17.7°
Drops below altitude 10° 19:31:47 10° 182° (S) 2,504 5.0 -18.7°
Sets 19:34:12 0° 186° (S) 3,440 5.7 -19.1°
